Tracking 28790 objects as of 18-Apr-2024
HD Live streaming from Space Station
objects crossing your sky now

FENGYUN 1C DEB

Track FENGYUN 1C DEB now!
10-day predictions


NORAD ID: 30234
Int'l Code: 1999-025WT
Perigee: 799.5 km
Apogee: 897.2 km
Inclination: 98.7 °
Period: 101.7 minutes
Semi major axis: 7219 km
RCS: 0.037 m2 (small)
Launch date: May 10, 1999
Source: People's Republic of China (PRC)
Launch site: Taiyaun Space Center, China (TSC)

Note: This is SATELLITE DEBRIS
Your satellite tracking list
Your tracking list is empty




NASA's NSSDC Master Catalog

Two Line Element Set (TLE):
1 30234U 99025WT  24109.59053146  .00001746  00000-0  89824-3 0  9998
2 30234  98.6641 131.6413 0067671   6.2442 119.3847 14.15328651889196
Source of the keplerian elements: AFSPC